QPF
0.04 0.04 0.02 0.02 0.05 0.07 0.08 0.09 0.09 0.08 0.06 0.03 0.02 0.02 0.02 0.02 0.02 0.03 0.02 0.03 0.01 0.01 0.01 0.01 0.00 0.00 0.00 0.00 0.00 0.00 0.00 0.00 0.00 0.00 0.00 0.00 0.00 0.00 0.01 0.01 0.01 0.01 0.01
0.06 0.04 0.03 0.03 0.03 0.05 0.05 0.06 0.07 0.09 0.09 0.05 0.02 0.02 0.03 0.03 0.02 0.03 0.02 0.02 0.01 0.01 0.01 0.01 0.01 0.01 0.01 0.01 0.01 0.01 0.01 0.01 0.01 0.01 0.01 0.01 0.01 0.01 0.01 0.01 0.01 0.01 0.01
0.09 0.05 0.04 0.03 0.03 0.04 0.05 0.05 0.06 0.06 0.08 0.06 0.04 0.03 0.02 0.02 0.02 0.02 0.02 0.02 0.01 0.01 0.01 0.01 0.01 0.01 0.01 0.01 0.01 0.01 0.01 0.01 0.01 0.01 0.01 0.01 0.01 0.01 0.01 0.01 0.01 0.01 0.01
0.11 0.08 0.05 0.04 0.03 0.03 0.04 0.04 0.04 0.05 0.05 0.06 0.05 0.04 0.03 0.03 0.02 0.03 0.02 0.01 0.01 0.01 0.01 0.01 0.01 0.02 0.02 0.02 0.01 0.01 0.01 0.01 0.01 0.01 0.01 0.01 0.01 0.01 0.02 0.02 0.01 0.02 0.02
0.11 0.12 0.07 0.05 0.04 0.03 0.03 0.03 0.03 0.04 0.04 0.05 0.07 0.06 0.03 0.03 0.03 0.03 0.02 0.01 0.01 0.01 0.00 0.00 0.00 0.00 0.01 0.02 0.01 0.01 0.01 0.01 0.01 0.01 0.00 0.01 0.01 0.01 0.02 0.02 0.02 0.02 0.02
0.07 0.12 0.10 0.06 0.05 0.04 0.04 0.03 0.03 0.03 0.04 0.04 0.06 0.09 0.07 0.03 0.02 0.02 0.02 0.01 0.01 0.00 0.00 0.00 0.00 0.00 0.00 0.00 0.01 0.01 0.01 0.01 0.01 0.01 0.01 0.01 0.01 0.02 0.02 0.03 0.03 0.03 0.03
0.04 0.07 0.11 0.11 0.08 0.06 0.05 0.04 0.03 0.03 0.04 0.05 0.05 0.08 0.09 0.06 0.03 0.02 0.01 0.01 0.00 0.00 0.00 0.00 0.00 0.00 0.00 0.00 0.00 0.00 0.01 0.02 0.02 0.02 0.02 0.02 0.02 0.02 0.02 0.03 0.05 0.05 0.05
0.04 0.04 0.07 0.11 0.13 0.10 0.07 0.06 0.04 0.03 0.04 0.04 0.05 0.05 0.07 0.07 0.04 0.02 0.02 0.01 0.00 0.00 0.00 0.00 0.00 0.00 0.00 0.00 0.00 0.00 0.01 0.01 0.03 0.05 0.06 0.05 0.03 0.02 0.03 0.03 0.04 0.04 0.04
0.03 0.04 0.04 0.06 0.10 0.14 0.10 0.07 0.05 0.03 0.03 0.04 0.04 0.04 0.04 0.04 0.03 0.02 0.01 0.01 0.01 0.00 0.00 0.00 0.00 0.00 0.00 0.00 0.00 0.00 0.00 0.00 0.01 0.02 0.04 0.04 0.04 0.04 0.05 0.04 0.04 0.04 0.04
0.02 0.02 0.02 0.03 0.05 0.10 0.14 0.10 0.07 0.05 0.03 0.03 0.04 0.04 0.04 0.02 0.02 0.01 0.01 0.01 0.01 0.00 0.00 0.00 0.00 0.00 0.00 0.00 0.00 0.00 0.00 0.00 0.01 0.01 0.02 0.03 0.04 0.04 0.05 0.06 0.07 0.06 0.05
0.03 0.02 0.02 0.03 0.04 0.06 0.09 0.14 0.11 0.06 0.04 0.03 0.03 0.03 0.04 0.03 0.02 0.01 0.01 0.01 0.01 0.00 0.00 0.00 0.00 0.00 0.00 0.00 0.00 0.00 0.00 0.00 0.00 0.01 0.01 0.02 0.03 0.04 0.05 0.05 0.05 0.05 0.04
0.04 0.04 0.03 0.03 0.03 0.04 0.05 0.10 0.14 0.10 0.04 0.03 0.03 0.03 0.03 0.03 0.03 0.02 0.01 0.01 0.01 0.00 0.00 0.00 0.00 0.00 0.00 0.00 0.00 0.00 0.00 0.00 0.00 0.00 0.01 0.02 0.03 0.04 0.03 0.03 0.03 0.03 0.02
0.03 0.04 0.05 0.04 0.04 0.04 0.03 0.05 0.10 0.15 0.09 0.03 0.02 0.02 0.02 0.02 0.02 0.02 0.02 0.02 0.01 0.00 0.00 0.00 0.00 0.00 0.00 0.00 0.00 0.00 0.00 0.00 0.00 0.00 0.00 0.01 0.01 0.02 0.03 0.03 0.03 0.02 0.02
0.03 0.04 0.04 0.04 0.04 0.04 0.04 0.03 0.04 0.08 0.13 0.08 0.02 0.01 0.01 0.01 0.01 0.01 0.02 0.02 0.01 0.01 0.00 0.00 0.00 0.00 0.00 0.00 0.00 0.00 0.00 0.00 0.00 0.00 0.01 0.00 0.00 0.01 0.01 0.02 0.02 0.02 0.02
0.03 0.04 0.04 0.04 0.04 0.04 0.05 0.04 0.03 0.03 0.06 0.10 0.06 0.01 0.01 0.01 0.01 0.01 0.01 0.01 0.01 0.01 0.01 0.00 0.00 0.00 0.00 0.00 0.00 0.00 0.00 0.00 0.00 0.01 0.00 0.00 0.00 0.01 0.01 0.01 0.01 0.01 0.01
0.02 0.03 0.04 0.05 0.04 0.04 0.05 0.05 0.03 0.03 0.03 0.05 0.07 0.05 0.02 0.01 0.00 0.00 0.00 0.00 0.01 0.01 0.01 0.00 0.00 0.00 0.00 0.00 0.00 0.00 0.00 0.00 0.01 0.01 0.01 0.00 0.00 0.01 0.01 0.01 0.01 0.01 0.01
0.03 0.03 0.04 0.05 0.05 0.05 0.05 0.05 0.04 0.03 0.03 0.03 0.04 0.05 0.03 0.01 0.01 0.00 0.01 0.01 0.00 0.00 0.01 0.00 0.00 0.00 0.00 0.00 0.00 0.00 0.00 0.00 0.01 0.01 0.01 0.01 0.00 0.00 0.00 0.00 0.01 0.01 0.01
0.03 0.03 0.04 0.05 0.05 0.05 0.05 0.05 0.04 0.04 0.03 0.03 0.03 0.02 0.03 0.02 0.01 0.01 0.01 0.01 0.00 0.00 0.01 0.00 0.00 0.00 0.00 0.00 0.00 0.00 0.00 0.00 0.00 0.00 0.00 0.00 0.00 0.00 0.00 0.00 0.01 0.01 0.01
0.02 0.02 0.03 0.04 0.05 0.05 0.04 0.04 0.04 0.04 0.03 0.02 0.03 0.02 0.02 0.02 0.01 0.01 0.01 0.00 0.00 0.00 0.01 0.01 0.00 0.00 0.00 0.00 0.00 0.00 0.00 0.00 0.00 0.00 0.00 0.00 0.00 0.00 0.00 0.00 0.00 0.00 0.01
0.02 0.03 0.03 0.03 0.04 0.04 0.04 0.03 0.03 0.03 0.03 0.02 0.02 0.02 0.01 0.01 0.01 0.01 0.01 0.00 0.00 0.00 0.01 0.01 0.01 0.00 0.00 0.00 0.00 0.00 0.00 0.00 0.00 0.00 0.00 0.00 0.00 0.00 0.00 0.00 0.00 0.00 0.00
0.02 0.03 0.03 0.03 0.04 0.04 0.04 0.03 0.02 0.02 0.02 0.02 0.01 0.01 0.01 0.01 0.01 0.01 0.01 0.01 0.01 0.01 0.01 0.01 0.01 0.00 0.00 0.00 0.00 0.00 0.00 0.00 0.00 0.00 0.00 0.00 0.00 0.00 0.00 0.00 0.00 0.00 0.00
0.01 0.02 0.03 0.03 0.03 0.04 0.04 0.04 0.02 0.01 0.01 0.01 0.01 0.01 0.01 0.01 0.01 0.01 0.01 0.01 0.01 0.01 0.01 0.01 0.01 0.01 0.00 0.00 0.00 0.01 0.01 0.01 0.00 0.00 0.00 0.00 0.00 0.00 0.00 0.00 0.00 0.00 0.00
0.02 0.02 0.03 0.03 0.03 0.03 0.04 0.03 0.02 0.02 0.01 0.01 0.01 0.01 0.01 0.01 0.01 0.01 0.02 0.02 0.01 0.01 0.01 0.01 0.01 0.01 0.01 0.01 0.01 0.01 0.01 0.01 0.00 0.00 0.00 0.00 0.00 0.00 0.00 0.00 0.00 0.00 0.01
0.02 0.02 0.03 0.03 0.03 0.03 0.03 0.03 0.02 0.02 0.01 0.01 0.01 0.00 0.01 0.01 0.01 0.01 0.02 0.02 0.02 0.02 0.01 0.01 0.01 0.00 0.01 0.01 0.01 0.01 0.01 0.01 0.00 0.00 0.00 0.00 0.00 0.00 0.00 0.00 0.00 0.00 0.00
0.02 0.02 0.03 0.03 0.03 0.03 0.04 0.03 0.02 0.01 0.01 0.01 0.01 0.01 0.00 0.00 0.01 0.01 0.01 0.02 0.02 0.02 0.01 0.01 0.01 0.01 0.01 0.00 0.00 0.01 0.01 0.01 0.01 0.00 0.00 0.00 0.00 0.00 0.00 0.00 0.00 0.00 0.00
0.03 0.02 0.02 0.02 0.02 0.02 0.03 0.03 0.03 0.01 0.01 0.01 0.01 0.01 0.01 0.01 0.01 0.01 0.01 0.01 0.02 0.01 0.01 0.01 0.01 0.00 0.00 0.00 0.00 0.01 0.01 0.02 0.02 0.01 0.00 0.01 0.01 0.01 0.01 0.00 0.00 0.00 0.00
MSLP
1023.20 1023.16 1023.08 1022.98 1022.85 1022.70 1022.54 1022.36 1022.18 1021.98 1021.78 1021.57 1021.36 1021.15 1020.98 1020.86 1020.78 1020.76 1020.78 1020.80 1020.81 1020.76 1020.64 1020.42 1020.12 1019.76 1019.37 1018.98 1018.62 1018.32 1018.06 1017.85 1017.65 1017.45 1017.23 1016.98 1016.70 1016.39 1016.08 1015.77 1015.48 1015.21 1014.95
1023.08 1023.04 1022.97 1022.86 1022.72 1022.56 1022.37 1022.18 1021.99 1021.80 1021.61 1021.42 1021.25 1021.10 1020.99 1020.93 1020.92 1020.96 1021.04 1021.11 1021.15 1021.12 1021.01 1020.80 1020.50 1020.13 1019.73 1019.32 1018.93 1018.59 1018.28 1018.02 1017.78 1017.53 1017.26 1016.97 1016.66 1016.34 1016.01 1015.70 1015.40 1015.12 1014.84
1022.96 1022.94 1022.87 1022.76 1022.61 1022.43 1022.23 1022.03 1021.83 1021.63 1021.46 1021.30 1021.16 1021.06 1020.99 1020.98 1021.01 1021.09 1021.19 1021.28 1021.34 1021.34 1021.24 1021.05 1020.77 1020.42 1020.03 1019.62 1019.23 1018.86 1018.53 1018.22 1017.92 1017.62 1017.31 1016.97 1016.62 1016.27 1015.93 1015.61 1015.30 1015.02 1014.74
1022.87 1022.87 1022.81 1022.71 1022.55 1022.36 1022.15 1021.92 1021.71 1021.51 1021.34 1021.19 1021.07 1020.99 1020.95 1020.95 1020.99 1021.07 1021.17 1021.27 1021.33 1021.33 1021.26 1021.11 1020.87 1020.56 1020.21 1019.84 1019.47 1019.11 1018.76 1018.42 1018.08 1017.72 1017.36 1016.97 1016.58 1016.20 1015.84 1015.50 1015.18 1014.89 1014.60
1022.81 1022.83 1022.80 1022.70 1022.55 1022.35 1022.12 1021.88 1021.65 1021.44 1021.25 1021.09 1020.96 1020.88 1020.82 1020.81 1020.84 1020.89 1020.97 1021.04 1021.09 1021.10 1021.05 1020.94 1020.76 1020.53 1020.25 1019.94 1019.62 1019.28 1018.94 1018.59 1018.21 1017.82 1017.40 1016.96 1016.53 1016.11 1015.72 1015.36 1015.03 1014.72 1014.43
1022.74 1022.80 1022.80 1022.72 1022.58 1022.38 1022.15 1021.89 1021.63 1021.39 1021.17 1020.99 1020.84 1020.72 1020.64 1020.59 1020.57 1020.58 1020.61 1020.64 1020.67 1020.68 1020.66 1020.59 1020.48 1020.32 1020.13 1019.91 1019.65 1019.37 1019.05 1018.70 1018.31 1017.87 1017.41 1016.94 1016.46 1016.00 1015.57 1015.18 1014.83 1014.51 1014.20
1022.61 1022.72 1022.76 1022.72 1022.61 1022.42 1022.18 1021.91 1021.64 1021.37 1021.12 1020.90 1020.72 1020.56 1020.43 1020.33 1020.26 1020.21 1020.18 1020.17 1020.16 1020.16 1020.15 1020.12 1020.08 1020.00 1019.90 1019.76 1019.58 1019.35 1019.07 1018.73 1018.33 1017.88 1017.39 1016.87 1016.36 1015.86 1015.39 1014.97 1014.59 1014.25 1013.92
1022.38 1022.54 1022.63 1022.65 1022.57 1022.42 1022.20 1021.93 1021.64 1021.35 1021.08 1020.84 1020.62 1020.43 1020.27 1020.12 1019.99 1019.89 1019.80 1019.74 1019.69 1019.66 1019.65 1019.64 1019.64 1019.62 1019.59 1019.52 1019.40 1019.23 1018.99 1018.67 1018.28 1017.82 1017.31 1016.77 1016.22 1015.69 1015.19 1014.74 1014.33 1013.96 1013.62
1022.02 1022.23 1022.39 1022.47 1022.45 1022.34 1022.15 1021.90 1021.63 1021.34 1021.07 1020.82 1020.60 1020.39 1020.20 1020.03 1019.87 1019.71 1019.57 1019.45 1019.36 1019.29 1019.25 1019.23 1019.23 1019.24 1019.25 1019.22 1019.15 1019.02 1018.81 1018.52 1018.14 1017.68 1017.17 1016.62 1016.05 1015.50 1014.98 1014.50 1014.06 1013.67 1013.31
1021.53 1021.80 1022.02 1022.16 1022.21 1022.16 1022.02 1021.82 1021.58 1021.32 1021.07 1020.84 1020.64 1020.45 1020.27 1020.09 1019.92 1019.73 1019.55 1019.38 1019.22 1019.10 1019.00 1018.95 1018.92 1018.92 1018.92 1018.90 1018.84 1018.73 1018.54 1018.27 1017.91 1017.47 1016.96 1016.41 1015.85 1015.28 1014.75 1014.25 1013.79 1013.37 1012.99
1020.94 1021.26 1021.54 1021.75 1021.87 1021.88 1021.80 1021.66 1021.47 1021.27 1021.07 1020.89 1020.73 1020.58 1020.44 1020.29 1020.12 1019.93 1019.72 1019.50 1019.29 1019.09 1018.93 1018.80 1018.71 1018.66 1018.61 1018.57 1018.50 1018.38 1018.19 1017.93 1017.59 1017.16 1016.68 1016.15 1015.59 1015.04 1014.50 1013.99 1013.51 1013.07 1012.67
1020.32 1020.68 1021.00 1021.27 1021.44 1021.52 1021.50 1021.42 1021.30 1021.16 1021.03 1020.91 1020.82 1020.74 1020.66 1020.55 1020.41 1020.23 1020.01 1019.76 1019.49 1019.22 1018.97 1018.76 1018.58 1018.45 1018.33 1018.23 1018.12 1017.97 1017.78 1017.52 1017.18 1016.78 1016.32 1015.82 1015.28 1014.74 1014.21 1013.70 1013.21 1012.76 1012.33
1019.71 1020.08 1020.44 1020.74 1020.96 1021.08 1021.12 1021.10 1021.04 1020.96 1020.90 1020.86 1020.84 1020.84 1020.83 1020.78 1020.69 1020.54 1020.32 1020.04 1019.73 1019.40 1019.07 1018.76 1018.49 1018.26 1018.07 1017.89 1017.72 1017.53 1017.31 1017.04 1016.71 1016.33 1015.89 1015.41 1014.90 1014.38 1013.86 1013.36 1012.87 1012.40 1011.95
1019.14 1019.52 1019.89 1020.21 1020.45 1020.61 1020.69 1020.70 1020.69 1020.67 1020.66 1020.69 1020.74 1020.81 1020.87 1020.89 1020.85 1020.73 1020.53 1020.25 1019.91 1019.53 1019.13 1018.75 1018.40 1018.08 1017.79 1017.54 1017.30 1017.06 1016.81 1016.52 1016.18 1015.80 1015.38 1014.92 1014.44 1013.94 1013.44 1012.94 1012.45 1011.98 1011.52
1018.62 1019.00 1019.37 1019.69 1019.94 1020.11 1020.20 1020.24 1020.25 1020.26 1020.30 1020.37 1020.48 1020.60 1020.72 1020.80 1020.81 1020.73 1020.56 1020.29 1019.95 1019.55 1019.11 1018.67 1018.25 1017.86 1017.50 1017.18 1016.88 1016.58 1016.28 1015.96 1015.61 1015.22 1014.80 1014.35 1013.88 1013.40 1012.91 1012.43 1011.95 1011.48 1011.02
1018.15 1018.52 1018.88 1019.19 1019.43 1019.59 1019.69 1019.73 1019.75 1019.77 1019.83 1019.92 1020.06 1020.21 1020.37 1020.49 1020.55 1020.52 1020.38 1020.14 1019.81 1019.41 1018.97 1018.50 1018.04 1017.60 1017.19 1016.80 1016.44 1016.10 1015.75 1015.39 1015.01 1014.60 1014.16 1013.71 1013.24 1012.76 1012.28 1011.81 1011.35 1010.90 1010.45
1017.69 1018.06 1018.40 1018.70 1018.93 1019.09 1019.17 1019.20 1019.21 1019.23 1019.28 1019.37 1019.51 1019.67 1019.84 1019.99 1020.08 1020.08 1019.99 1019.79 1019.50 1019.13 1018.70 1018.23 1017.76 1017.30 1016.85 1016.42 1016.01 1015.61 1015.22 1014.81 1014.39 1013.94 1013.48 1013.01 1012.52 1012.04 1011.57 1011.11 1010.66 1010.23 1009.79
1017.23 1017.59 1017.93 1018.23 1018.45 1018.60 1018.67 1018.69 1018.68 1018.68 1018.70 1018.77 1018.89 1019.04 1019.20 1019.36 1019.46 1019.50 1019.44 1019.29 1019.04 1018.71 1018.32 1017.88 1017.42 1016.95 1016.48 1016.03 1015.58 1015.14 1014.70 1014.24 1013.77 1013.28 1012.78 1012.28 1011.77 1011.28 1010.80 1010.34 1009.90 1009.48 1009.07
1016.75 1017.12 1017.46 1017.76 1017.98 1018.12 1018.19 1018.20 1018.17 1018.14 1018.14 1018.17 1018.25 1018.37 1018.51 1018.65 1018.76 1018.82 1018.79 1018.68 1018.48 1018.20 1017.85 1017.45 1017.01 1016.56 1016.09 1015.62 1015.15 1014.68 1014.19 1013.69 1013.18 1012.65 1012.11 1011.56 1011.03 1010.51 1010.01 1009.54 1009.11 1008.69 1008.30
1016.25 1016.62 1016.98 1017.28 1017.51 1017.66 1017.73 1017.73 1017.69 1017.64 1017.60 1017.59 1017.63 1017.70 1017.81 1017.92 1018.02 1018.08 1018.08 1018.01 1017.85 1017.62 1017.32 1016.96 1016.55 1016.12 1015.66 1015.19 1014.71 1014.22 1013.71 1013.18 1012.63 1012.07 1011.49 1010.91 1010.33 1009.78 1009.25 1008.76 1008.30 1007.88 1007.48
1015.76 1016.13 1016.49 1016.80 1017.05 1017.21 1017.28 1017.29 1017.24 1017.16 1017.09 1017.04 1017.02 1017.05 1017.12 1017.20 1017.28 1017.33 1017.34 1017.30 1017.18 1016.99 1016.72 1016.41 1016.04 1015.63 1015.20 1014.74 1014.26 1013.77 1013.25 1012.71 1012.15 1011.56 1010.96 1010.34 1009.73 1009.13 1008.56 1008.02 1007.52 1007.07 1006.64
1015.28 1015.64 1016.00 1016.32 1016.57 1016.74 1016.82 1016.83 1016.77 1016.68 1016.57 1016.48 1016.43 1016.41 1016.42 1016.47 1016.52 1016.57 1016.59 1016.55 1016.46 1016.30 1016.08 1015.80 1015.47 1015.10 1014.69 1014.26 1013.80 1013.33 1012.83 1012.29 1011.73 1011.14 1010.52 1009.88 1009.23 1008.58 1007.95 1007.35 1006.79 1006.27 1005.79
1014.85 1015.18 1015.51 1015.81 1016.06 1016.23 1016.32 1016.32 1016.26 1016.15 1016.02 1015.90 1015.80 1015.75 1015.72 1015.74 1015.77 1015.80 1015.82 1015.79 1015.72 1015.59 1015.40 1015.16 1014.86 1014.52 1014.15 1013.75 1013.34 1012.89 1012.42 1011.92 1011.38 1010.80 1010.17 1009.52 1008.83 1008.13 1007.43 1006.76 1006.11 1005.50 1004.94
1014.45 1014.72 1015.01 1015.29 1015.51 1015.67 1015.75 1015.75 1015.68 1015.56 1015.41 1015.27 1015.15 1015.06 1015.01 1015.00 1015.01 1015.03 1015.04 1015.03 1014.97 1014.86 1014.70 1014.49 1014.22 1013.92 1013.59 1013.24 1012.86 1012.46 1012.03 1011.57 1011.06 1010.50 1009.88 1009.21 1008.49 1007.74 1006.98 1006.21 1005.47 1004.77 1004.11
1014.08 1014.28 1014.51 1014.73 1014.92 1015.05 1015.11 1015.09 1015.01 1014.89 1014.73 1014.58 1014.44 1014.34 1014.28 1014.26 1014.26 1014.28 1014.29 1014.29 1014.24 1014.15 1014.01 1013.82 1013.59 1013.32 1013.03 1012.71 1012.38 1012.02 1011.64 1011.21 1010.73 1010.19 1009.59 1008.91 1008.16 1007.36 1006.53 1005.69 1004.85 1004.05 1003.29
1013.72 1013.84 1013.99 1014.15 1014.28 1014.37 1014.40 1014.37 1014.29 1014.16 1014.01 1013.86 1013.73 1013.63 1013.57 1013.55 1013.55 1013.57 1013.59 1013.59 1013.56 1013.48 1013.35 1013.19 1012.98 1012.73 1012.47 1012.18 1011.88 1011.56 1011.20 1010.81 1010.35 1009.83 1009.22 1008.53 1007.77 1006.94 1006.05 1005.14 1004.23 1003.35 1002.51
Thickness
5669 5670 5671 5671 5672 5672 5672 5672 5672 5671 5670 5669 5668 5667 5665 5664 5662 5660 5657 5654 5653 5652 5651 5650 5648 5647 5646 5644 5643 5642 5640 5639 5638 5637 5635 5634 5633 5631 5630 5629 5628 5627 5626
5662 5663 5664 5664 5665 5665 5665 5665 5666 5664 5663 5663 5662 5660 5659 5657 5655 5653 5651 5648 5645 5644 5643 5642 5640 5639 5638 5637 5636 5635 5633 5632 5631 5630 5628 5627 5626 5625 5623 5622 5621 5620 5620
5655 5656 5657 5657 5658 5658 5658 5658 5658 5657 5655 5655 5654 5652 5651 5650 5648 5646 5644 5641 5639 5636 5634 5633 5632 5631 5630 5630 5628 5627 5626 5625 5624 5623 5621 5620 5619 5618 5616 5615 5614 5613 5612
5648 5648 5649 5650 5650 5651 5651 5651 5651 5651 5650 5648 5647 5645 5644 5642 5640 5639 5636 5634 5632 5630 5627 5625 5624 5623 5622 5621 5620 5619 5618 5617 5616 5615 5614 5613 5611 5610 5609 5608 5607 5606 5605
5640 5641 5642 5643 5643 5644 5644 5645 5645 5644 5643 5641 5639 5637 5636 5635 5633 5631 5629 5627 5624 5622 5620 5618 5616 5614 5613 5613 5612 5611 5610 5610 5609 5607 5606 5605 5604 5603 5602 5600 5599 5598 5597
5632 5633 5634 5635 5636 5637 5637 5638 5637 5636 5635 5634 5632 5629 5628 5627 5625 5623 5621 5619 5616 5614 5612 5611 5609 5607 5605 5604 5603 5602 5602 5601 5601 5599 5598 5597 5596 5595 5594 5592 5591 5590 5589
5624 5626 5627 5627 5628 5630 5631 5631 5630 5628 5626 5625 5625 5623 5620 5619 5617 5615 5613 5611 5609 5606 5605 5603 5601 5599 5598 5596 5594 5593 5593 5593 5592 5591 5590 5589 5588 5586 5585 5583 5582 5581 5580
5617 5618 5619 5620 5620 5621 5622 5622 5622 5621 5619 5617 5619 5619 5617 5614 5610 5607 5605 5602 5601 5599 5597 5595 5593 5591 5589 5588 5586 5585 5584 5583 5583 5582 5581 5580 5579 5577 5576 5574 5573 5572 5571
5609 5610 5611 5612 5613 5614 5615 5615 5614 5614 5613 5610 5609 5611 5612 5612 5606 5602 5598 5595 5593 5591 5589 5587 5585 5583 5581 5580 5578 5577 5575 5574 5574 5573 5572 5571 5569 5568 5566 5565 5563 5562 5560
5602 5603 5604 5605 5606 5607 5608 5607 5607 5607 5606 5604 5601 5600 5600 5600 5598 5597 5593 5589 5586 5584 5582 5580 5577 5575 5573 5571 5569 5567 5566 5565 5564 5563 5562 5561 5559 5558 5556 5555 5553 5551 5549
5595 5597 5597 5597 5598 5599 5600 5600 5599 5599 5598 5597 5595 5593 5591 5589 5588 5589 5588 5584 5580 5577 5574 5572 5570 5567 5565 5563 5561 5559 5557 5556 5555 5553 5552 5550 5549 5548 5546 5544 5542 5539 5538
5588 5588 5588 5590 5591 5592 5592 5592 5591 5591 5590 5589 5587 5586 5585 5584 5582 5580 5579 5577 5574 5571 5567 5564 5562 5560 5557 5555 5553 5550 5548 5547 5545 5544 5542 5540 5538 5536 5534 5532 5530 5528 5526
5580 5581 5581 5582 5583 5584 5584 5584 5583 5582 5582 5581 5580 5578 5576 5575 5573 5571 5570 5568 5565 5564 5561 5558 5555 5552 5549 5547 5544 5541 5539 5538 5536 5534 5532 5530 5527 5525 5523 5521 5518 5516 5514
5573 5573 5574 5575 5575 5576 5576 5576 5576 5574 5573 5573 5571 5569 5567 5565 5564 5562 5561 5558 5557 5557 5556 5553 5548 5544 5540 5538 5535 5532 5531 5529 5526 5524 5522 5519 5517 5514 5512 5509 5507 5505 5501
5564 5564 5566 5566 5567 5567 5568 5568 5569 5567 5566 5564 5563 5561 5559 5557 5555 5553 5551 5549 5548 5550 5551 5547 5541 5536 5532 5529 5526 5524 5522 5520 5517 5515 5512 5510 5507 5504 5502 5498 5496 5494 5491
5556 5557 5558 5558 5559 5559 5559 5560 5560 5559 5558 5556 5554 5552 5551 5549 5547 5544 5542 5541 5539 5539 5539 5538 5533 5528 5524 5521 5518 5515 5513 5511 5508 5506 5503 5500 5497 5495 5492 5488 5486 5483 5480
5547 5549 5550 5550 5551 5551 5552 5552 5552 5551 5549 5548 5546 5544 5543 5540 5539 5536 5534 5532 5530 5529 5529 5527 5522 5519 5516 5513 5510 5507 5505 5502 5500 5497 5494 5491 5488 5485 5482 5478 5475 5473 5471
5538 5540 5541 5541 5542 5544 5544 5545 5545 5543 5542 5541 5539 5537 5535 5532 5530 5528 5526 5524 5522 5521 5519 5518 5515 5511 5508 5505 5502 5500 5497 5493 5491 5488 5485 5482 5479 5475 5472 5469 5466 5464 5461
5529 5530 5531 5533 5534 5535 5536 5536 5536 5535 5534 5533 5531 5529 5528 5525 5523 5521 5518 5517 5514 5512 5510 5508 5506 5502 5500 5497 5495 5492 5489 5486 5482 5479 5476 5473 5469 5466 5463 5460 5457 5455 5452
5519 5521 5522 5523 5525 5526 5527 5527 5527 5527 5526 5524 5523 5521 5520 5518 5517 5514 5511 5509 5506 5504 5501 5499 5497 5495 5492 5489 5486 5485 5483 5479 5475 5471 5467 5464 5461 5457 5454 5451 5449 5447 5444
5510 5511 5513 5514 5516 5518 5519 5519 5519 5518 5517 5516 5515 5514 5513 5511 5509 5506 5504 5501 5499 5496 5494 5491 5489 5487 5485 5482 5479 5475 5473 5471 5467 5462 5460 5456 5453 5451 5447 5444 5441 5439 5436
5500 5502 5503 5506 5508 5509 5510 5510 5510 5510 5509 5509 5508 5507 5505 5503 5500 5497 5495 5493 5491 5489 5486 5484 5481 5480 5477 5474 5470 5466 5463 5461 5461 5455 5450 5449 5445 5443 5440 5437 5434 5431 5430
5490 5493 5495 5497 5499 5500 5500 5501 5500 5501 5501 5500 5500 5499 5498 5496 5493 5491 5488 5484 5482 5478 5476 5475 5474 5472 5469 5466 5462 5458 5454 5451 5448 5443 5440 5442 5439 5437 5433 5430 5427 5425 5424
5481 5483 5485 5487 5489 5491 5491 5491 5491 5492 5493 5492 5492 5491 5490 5488 5486 5483 5481 5478 5475 5472 5469 5467 5466 5463 5459 5456 5452 5448 5445 5442 5440 5436 5431 5431 5432 5430 5427 5425 5422 5420 5418
5472 5474 5476 5477 5480 5481 5481 5482 5483 5484 5484 5484 5483 5483 5482 5480 5478 5476 5473 5471 5468 5465 5461 5459 5456 5453 5450 5446 5442 5440 5437 5435 5435 5432 5424 5421 5422 5421 5422 5421 5419 5416 5414
5463 5464 5466 5468 5470 5472 5472 5473 5474 5476 5477 5476 5475 5475 5474 5472 5470 5467 5466 5464 5462 5459 5455 5453 5449 5446 5443 5439 5435 5431 5429 5426 5425 5423 5419 5414 5413 5411 5415 5418 5415 5412 5411